sat.trackr.live / text

‹ back to catalog

ORBASTRO-PC-1

NORAD 58258 · 2023-174C

PAYLOAD ACTIVE UNKNOWN

§ Identity

Operator
Country
UK
Launch date
2023-11-11
Launch site
AFWTR
Launch vehicle
Mass (kg)
RCS (m²)

External: N2YO · Heavens-Above · Gunter

§ Orbital elements

Epoch: 2026-05-25T04:28:50.093760Z

Period
93.05 min
Inclination
97.3771°
Eccentricity
0.0005246
Mean motion
15.47516874 rev/d
Perigee alt
420.4 km
Apogee alt
427.6 km
Semi-major
6,802.1 km
B*
4.4842e-4
RAAN
230.7495°
Arg perigee
240.4250°
Mean anomaly
119.6478°
Rev number
14,191

§ Raw data

ORBASTRO-PC-11 58258U 23174C   26145.18669090  .00022999  00000+0  44842-3 0  99972 58258  97.3771 230.7495 0005246 240.4250 119.6478 15.47516874141918

JSON: /api/v1/satellites/58258 · /tle

For live sub-satellite position, see the globe view (requires WebGL).

§ Visibility from observer

Set your observer location to see the next 7 days of passes ≥ 10°. The values pass through the URL so the page stays shareable.

No JS? Fill the form by hand. The geolocation button needs JavaScript.

§ Radio — SatNOGS DB

ModeDescriptionDownlinkUplink
FM S-band telemetry 2.260 GHz

1 transmitter · refreshed weekly from db.satnogs.org